Lid_Strength_Index
16 17 17 16 16 17 17 15 15 14 15 14 12 12 12 13 13 13 13 13 13 13 13 13 14 14 14 14 13 13 14 14 14 14 14 15 15 16 16 16 16 16 16 16
20 16 16 17 16 17 15 15 15 15 15 12 12 13 14 12 12 13 12 12 11 12 12 13 13 13 13 14 14 13 14 14 14 15 15 16 16 16 16 16 16 16 16 16
18 19 18 19 17 16 15 15 13 15 13 16 15 14 14 14 14 13 12 12 11 12 13 12 13 12 13 13 14 14 15 16 16 16 16 17 16 16 16 16 16 16 16 17
21 20 22 18 20 17 14 14 15 17 18 17 16 15 14 14 14 13 13 13 13 12 13 13 13 13 13 13 14 15 16 17 17 17 17 17 17 17 17 17 17 18 18 18
20 22 19 18 19 19 18 18 18 15 15 15 15 17 17 14 14 13 13 13 13 13 13 14 13 13 14 14 14 15 16 16 16 17 18 18 19 19 18 19 19 19 18 19
23 23 23 20 18 17 16 21 19 16 16 17 16 19 17 14 13 13 13 13 12 12 12 13 13 14 15 15 16 16 15 15 16 17 20 20 19 20 20 21 19 18 19 19
19 19 19 19 18 16 21 18 19 18 17 17 17 15 14 13 14 12 12 12 12 13 13 13 14 15 15 16 16 16 16 16 17 17 20 20 21 21 22 23 20 22 21 20
22 21 21 17 16 17 15 15 14 15 14 14 14 13 13 13 13 13 12 12 11 12 13 14 15 15 15 15 16 17 17 18 18 21 20 20 26 25 25 26 25 24 24 22
19 19 16 15 14 13 13 14 14 14 13 13 13 13 13 13 13 13 12 12 12 13 13 14 16 15 15 16 17 18 20 20 21 21 20 20 24 23 25 27 26 23 22 21
19 18 16 14 13 12 12 12 12 12 12 12 12 12 13 13 13 13 13 13 14 16 15 15 17 16 17 17 18 22 24 21 20 21 21 21 20 20 25 25 23 22 22 21
19 16 15 13 12 11 11 11 12 12 12 12 12 12 13 13 13 12 12 13 15 14 14 14 17 18 19 19 20 22 23 20 20 20 21 21 21 21 21 20 20 21 20 18
18 13 13 12 11 11 11 11 11 12 13 13 12 12 12 12 11 12 12 15 15 15 16 18 18 19 21 21 21 22 21 20 20 20 20 20 21 21 16 13 12 11 10 11
13 12 12 11 11 11 11 11 11 12 12 12 12 12 12 12 13 13 16 16 16 16 18 19 20 20 22 24 24 24 23 20 20 20 21 22 22 22 23 19 14 13 12 12
11 12 13 12 11 11 11 11 12 13 13 12 11 14 14 14 17 17 16 17 18 19 21 22 23 24 24 25 26 25 22 20 22 21 22 24 23 23 23 24 24 22 17 15
12 11 9 10 11 11 12 13 14 13 13 15 16 15 16 16 17 17 19 21 21 23 25 24 26 24 25 25 24 23 22 22 22 23 23 24 23 23 23 23 23 24 22 19
12 12 12 12 10 12 13 16 13 13 14 14 16 17 16 18 20 22 24 25 23 24 26 26 25 25 27 27 26 26 24 22 22 25 26 26 24 24 24 24 25 25 24 23
15 15 19 17 12 12 14 12 12 12 16 16 17 19 21 23 26 28 31 32 31 29 30 29 26 28 30 28 27 24 25 26 24 27 28 27 27 26 25 26 25 26 24 22
10 9 13 13 13 13 14 14 15 18 19 20 21 22 24 25 25 29 33 35 33 30 31 29 29 30 31 31 30 27 27 27 30 29 28 27 27 26 26 26 26 24 23 23
14 12 15 15 18 18 20 21 22 22 22 23 22 23 25 27 28 34 37 34 33 33 28 33 23 24 31 29 28 26 25 25 25 28 28 28 28 29 28 27 26 24 25 25
22 21 21 23 24 24 24 25 25 26 27 26 26 27 29 34 35 34 36 31 32 29 32 32 31 28 27 28 22 24 26 25 25 26 29 28 28 28 26 24 24 25 28 29
25 24 24 25 27 27 27 26 26 27 29 27 25 26 29 36 36 33 33 31 28 33 33 29 29 28 29 27 27 32 32 29 28 28 28 26 26 26 24 24 25 27 28 30
30 28 27 27 28 30 31 29 28 28 29 29 30 30 30 31 35 35 33 30 30 26 27 28 30 29 28 23 25 27 25 25 24 24 26 26 26 24 23 24 26 27 29 30
30 30 28 28 28 31 32 30 29 29 29 28 28 28 28 28 29 28 28 30 31 30 28 27 26 22 19 20 22 21 22 22 23 23 23 24 23 24 24 25 27 29 30 31
33 31 32 31 30 29 28 29 29 29 29 30 33 32 30 30 30 31 29 27 27 26 26 25 23 17 17 24 23 22 22 22 22 22 22 22 23 24 26 28 29 29 30 32
29 30 28 27 28 29 30 32 30 33 34 34 34 33 32 29 27 30 32 27 24 23 24 23 17 18 25 25 23 22 22 22 22 23 23 24 24 26 28 30 31 30 31 32
35 35 36 34 33 34 34 33 32 34 33 32 32 33 33 33 30 28 28 26 26 24 26 27 26 25 23 22 21 22 21 22 22 22 23 24 25 27 28 29 29 29 30 32
32 32 34 33 33 35 35 33 32 32 35 36 34 34 33 32 31 27 26 26 26 26 27 27 24 22 22 21 22 22 23 23 23 23 24 25 26 28 28 28 29 30 31 31